Homestead, FL

11:09 PM EST on December 04, 2016 (GMT -0500)
Dade County-Homestead Regional

Weather History for KHST - February, 2012

Change the Weather History Date:

Monday, February 27, 2012

  Actual Average Record
Temperature  
Mean Temperature 78 °F -  
Max Temperature 81 °F 76 °F 88 °F (1939)
Min Temperature 74 °F 52 °F 33 °F (1965)
Cooling Degree Days 12    
Growing Degree Days 28 (Base 50)    
Moisture  
Dew Point 70 °F    
Average Humidity 79    
Maximum Humidity 86    
Minimum Humidity 68    
Precipitation  
Precipitation 0.00 in - - ()
Sea Level Pressure  
Sea Level Pressure 30.24 in    
Wind  
Wind Speed 12 mph (East)    
Max Wind Speed 15 mph    
Max Gust Speed 24 mph    
Visibility 10 miles    
Events      
Averages and records for this station are not official NWS values.
T = Trace of Precipitation, MM = Missing Value Source: NWS Daily Summary

Daily Weather History Graph

Daily Weather History Graph

Search for Another Location

Airport or City:

Trip Planner

Search our weather history database for the weather conditions in past years. The results will help you decide how hot, cold, wet, or windy it might be!

Date:

Astronomy

Feb. 27, 2012 Rise Set
Actual Time 6:46 AM EST 6:22 PM EST
Civil Twilight 6:23 AM EST 6:45 PM EST
Nautical Twilight 5:57 AM EST 7:11 PM EST
Astronomical Twilight 5:30 AM EST 7:38 PM EST
Moon 9:54 AM EST (2/27) 11:32 PM EST (2/27)
Length of Visible Light 12h 21m
Length of Day
11h 35m
Waxing Crescent, 29% of the Moon is Illuminated
Feb 27
Waxing Crescent
Feb 29
First Quarter
Mar 8
Full
Mar 14
Last Quarter
Mar 22
New

Hourly Weather History & Observations

Time (EST) Temp. Heat Index Dew Point Humidity Pressure Visibility Wind Dir Wind Speed Gust Speed Precip Events Conditions
12:55 AM 75.0 °F - 69.1 °F 82% 30.24 in 10.0 mi East 12.7 mph - N/A   Partly Cloudy
1:55 AM 74.7 °F - 69.6 °F 84% 30.24 in 10.0 mi East 11.5 mph - N/A   Partly Cloudy
2:55 AM 75.2 °F - 69.1 °F 81% 30.23 in 10.0 mi East 13.8 mph - N/A   Scattered Clouds
3:55 AM 74.8 °F - 68.5 °F 81% 30.22 in 10.0 mi East 9.2 mph - N/A   Partly Cloudy
4:55 AM 74.7 °F - 69.1 °F 83% 30.21 in 10.0 mi East 13.8 mph 20.7 mph N/A   Clear
5:55 AM 74.7 °F - 69.3 °F 83% 30.22 in 10.0 mi East 11.5 mph - N/A   Clear
6:55 AM 74.7 °F - 69.3 °F 83% 30.23 in 10.0 mi ESE 8.1 mph - N/A   Clear
7:55 AM 75.7 °F - 69.4 °F 81% 30.25 in 10.0 mi East 10.4 mph - N/A   Clear
8:55 AM 78.1 °F - 69.6 °F 75% 30.26 in 10.0 mi ESE 13.8 mph 19.6 mph N/A   Clear
9:55 AM 79.7 °F - 69.8 °F 72% 30.28 in 10.0 mi ESE 15.0 mph - N/A   Clear
10:55 AM 80.2 °F 83.5 °F 70.0 °F 71% 30.29 in 10.0 mi ESE 15.0 mph 21.9 mph N/A   Partly Cloudy
11:55 AM 81.3 °F 84.8 °F 69.8 °F 68% 30.27 in 10.0 mi ESE 15.0 mph - N/A   Clear
12:55 PM 80.4 °F 84.1 °F 70.9 °F 73% 30.26 in 10.0 mi East 15.0 mph 24.2 mph N/A   Partly Cloudy
1:55 PM 80.4 °F 83.5 °F 69.6 °F 69% 30.25 in 10.0 mi East 13.8 mph - N/A   Partly Cloudy
2:55 PM 79.7 °F - 69.6 °F 71% 30.23 in 10.0 mi East 12.7 mph - N/A   Partly Cloudy
3:55 PM 79.9 °F - 70.0 °F 72% 30.22 in 10.0 mi East 12.7 mph 20.7 mph N/A   Clear
4:55 PM 77.7 °F - 69.6 °F 76% 30.22 in 10.0 mi East 10.4 mph - N/A   Clear
5:55 PM 77.4 °F - 69.6 °F 77% 30.22 in 10.0 mi East 11.5 mph - N/A   Clear
6:55 PM 75.4 °F - 70.0 °F 83% 30.23 in 10.0 mi East 10.4 mph - N/A   Partly Cloudy
7:55 PM 75.2 °F - 69.8 °F 83% 30.23 in 10.0 mi East 12.7 mph - N/A   Clear
8:55 PM 75.0 °F - 70.0 °F 84% 30.25 in 10.0 mi East 11.5 mph - N/A   Clear
9:55 PM 75.0 °F - 70.3 °F 85% 30.25 in 10.0 mi East 9.2 mph - N/A   Clear
10:55 PM 75.4 °F - 70.5 °F 85% 30.27 in 10.0 mi East 8.1 mph - N/A   Partly Cloudy
11:55 PM 74.7 °F - 70.2 °F 86% 30.25 in 10.0 mi East 8.1 mph - N/A   Clear